Regional Weather Roundup
Issued by NWS

Home | Current Version | Previous Version | Graphics & Text | Print | Product List | Glossary On
Versions: 1 2 3 4 5 6 7 8 9 10 11 12 13 14 15 16 17 18 19 20 21 22 23 24 25 26 27 28 29 30 31 32 33 34 35 36 37 38 39 40 41 42 43 44 45 46 47 48 49 50
000
ASUS43 KLOT 040308
RWRIL

ILLINOIS REGIONAL WEATHER ROUNDUP
NATIONAL WEATHER SERVICE CHICAGO/ROMEOVILLE IL
900 PM CST SAT DEC 03 2016

NOTE: "FAIR" INDICATES FEW OR NO CLOUDS BELOW 12,000 FEET WITH NO
SIGNIFICANT WEATHER AND/OR OBSTRUCTIONS TO VISIBILITY.

* THESE STATIONS ARE NOT UNDER NWS QUALITY CONTROL. THEY ALSO MAY NOT
  REPORT WEATHER SUCH AS PRECIPITATION OR FOG.

ILZ001-002-007-009-015-016-024-040400-
NORTHWEST ILLINOIS

CITY           SKY/WX    TMP DP  RH WIND       PRES   REMARKS
MOLINE         CLOUDY    34  26  72 S7        30.26F WCI  28
STERLING*      CLOUDY    33  28  81 VRB3      30.28F
SAVANNA*       CLOUDY    34  29  82 S5        30.26S WCI  30
$$

ILZ003-004-008-010-011-017-018-040400-
NORTH CENTRAL ILLINOIS

CITY           SKY/WX    TMP DP  RH WIND       PRES   REMARKS
ROCKFORD       CLOUDY    34  27  75 SE7       30.29F WCI  28
FREEPORT*      CLOUDY    32  28  83 SE6       30.28S WCI  26
ROCHELLE*      PTCLDY    32  29  90 S5        30.29S WCI  27
DE KALB*       CLOUDY    31  28  88 S7        30.28F WCI  24
$$

ILZ005-006-012>014-019>023-040400-
NORTHEAST ILLINOIS

CITY           SKY/WX    TMP DP  RH WIND       PRES   REMARKS
CHICAGO-OHARE  CLOUDY    31  25  78 S3        30.29F
CHICAGO-MIDWAY CLOUDY    33  24  69 S6        30.30F WCI  28
AURORA         CLOUDY    32  27  81 SE5       30.29S WCI  27
LANSING*       CLOUDY    29  28  94 CALM      30.30F
JOLIET*        CLOUDY    32  28  84 CALM      30.31S
WAUKEGAN       CLOUDY    31  26  82 CALM      30.28F
DUPAGE AIRPORT CLOUDY    31  26  82 S3        30.28S
KANKAKEE*      CLOUDY    30  26  86 CALM      30.31F
WHEELING       MOCLDY    32  24  72 CALM      30.30F
MORRIS*        CLOUDY    31  27  87 CALM      30.30F
ROMEOVILLE*    PTCLDY    30  29  98 S5        30.30S WCI  25
NORTHERLY ISL    N/A     33  24  70 S3          N/A
$$

LMZ740>746-040400-
SOUTHERN LAKE MICHIGAN

STATION/POSITION SKY/WX   TEMP    WIND        PRES    VSBY  WAVE
                          AIR SEA DIR/SP/G                  HT/PER
                          (F)     (DEG/KT/KT) (MB)    (MI)  (FT/S)
SOUTHERN BUOY              35 48  290/  6/ 10 1025.9F         1/ 3
HARRISON CRIB              35      30/  2/  3   N/A
BURNHAM HARBOR             33     200/  4/  4   N/A
CALUMET HARBOR             33     190/  3/  4 1025.3F
BURNS HARBOR               34     190/  7/  8 1026.8R
MICHIGAN CITY              33     160/  4/  5   N/A
$$

ILZ025>027-034>036-040-047-049-050-058-095>099-040400-
WEST-CENTRAL ILLINOIS

CITY           SKY/WX    TMP DP  RH WIND       PRES   REMARKS
QUINCY         CLOUDY    38  34  85 SE9       30.22F WCI  31
GALESBURG*     CLOUDY    33  29  84 E5        30.26S WCI  28
MACOMB*        CLOUDY    35  31  86 E9        30.27F WCI  28
JACKSONVILLE*  CLOUDY    37  32  84 E8        30.25F WCI  30
PITTSFIELD*    CLOUDY    39  35  85 E6        30.25S WCI  34
$$

ILZ028>032-037-038-041>044-048-051>054-059>061-040400-
CENTRAL ILLINOIS

CITY           SKY/WX    TMP DP  RH WIND       PRES   REMARKS
PONTIAC        CLOUDY    32  31  96 SE3       30.30F
BLOOMINGTON    CLOUDY    30  27  88 E6        30.29F WCI  24
DECATUR        CLOUDY    33  29  85 E8        30.29S WCI  26
PEORIA         CLOUDY    34  28  79 SE6       30.28F WCI  29
LACON*         CLOUDY    32  27  83 SE7       30.28F WCI  25
LINCOLN*       CLOUDY    34  32  92 E5        30.28F WCI  30
SPRINGFIELD    CLOUDY    37  31  78 E7        30.27F WCI  32
TAYLORVILLE    CLOUDY    35  31  86 E7        30.28S WCI  29
$$

ILZ033-039-045-046-055>057-062-063-040400-
EAST-CENTRAL ILLINOIS

CITY           SKY/WX    TMP DP  RH WIND       PRES   REMARKS
CHAMPAIGN      CLOUDY    32  27  81 NE7       30.28F WCI  26
RANTOUL*       CLOUDY    33  30  88 CALM      30.28F
MATTOON        CLOUDY    33  28  81 E6        30.28F WCI  28
PARIS*         CLOUDY    32  29  90 NE3       30.30F
$$

ILZ079-100>102-040400-
SOUTHWEST ILLINOIS

CITY           SKY/WX    TMP DP  RH WIND       PRES   REMARKS
ALTON          CLOUDY    37  34  87 E3        30.26F
BELLEVILLE     CLOUDY    40  35  84 E6        30.25S
CAHOKIA*       CLOUDY    42  31  64 SE6       30.25S
SPARTA*        CLOUDY    40  32  75 E7        30.25F
$$

ILZ064>066-069>071-074>076-080>082-084>086-088>090-092>094-040400-
SOUTH-CENTRAL ILLINOIS

CITY           SKY/WX    TMP DP  RH WIND       PRES   REMARKS
CARBONDALE     CLOUDY    41  33  73 E6        30.25F
CAIRO*         LGT RAIN  39  35  83 E6        30.24F
EFFINGHAM*     CLOUDY    37  33  84 E6        30.30S WCI  33
MARION         CLOUDY    43  34  70 E5        30.26F
CENTRALIA*     CLOUDY    39  35  83 CALM      30.25F
SALEM*         CLOUDY    40  32  74 E3        30.26S
METROPOLIS*    RAIN      42  32  69 E3        30.26F
$$

ILZ067-068-072-073-078-083-087-091-040400-
SOUTHEAST ILLINOIS

CITY           SKY/WX    TMP DP  RH WIND       PRES   REMARKS
LAWRENCEVILLE  CLOUDY    37  30  75 NE6       30.29F WCI  32
FLORA*         CLOUDY    40  32  75 E5        30.29S
FAIRFIELD*     CLOUDY    40  33  76 E3        30.27S
HARRISBURG*    CLOUDY    41  34  76 E7        30.27F
ROBINSON*      CLOUDY    34  31  86 NE6       30.31F WCI  29
CARMI*         CLOUDY    40  35  82 E6        30.28S
$$

ABBREVIATIONS USED IN REMARKS
   TC - TEMPERATURE IN CELSIUS
  WCI - WIND CHILL INDEX
   HX - HEAT INDEX
  VSB - VISIBILITY
$$





USA.gov is the U.S. government's official web portal to all federal, state and local government web resources and services.